TimeEDT,TemperatureF,Dew PointF,Humidity,Sea Level PressureIn,VisibilityMPH,Wind Direction,Wind SpeedMPH,Gust SpeedMPH,PrecipitationIn,Events,Conditions,WindDirDegrees,DateUTC
12:15 AM,74.3,72.5,94,30.15,10.0,Calm,Calm,-,N/A,,Clear,0,2013-07-08 04:15:00
12:35 AM,74.7,72.9,94,30.15,10.0,Calm,Calm,-,N/A,,Scattered Clouds,0,2013-07-08 04:35:00
12:55 AM,73.8,72.1,95,30.15,10.0,Calm,Calm,-,N/A,,Mostly Cloudy,0,2013-07-08 04:55:00
1:15 AM,73.4,71.8,95,30.15,10.0,Calm,Calm,-,N/A,,Scattered Clouds,0,2013-07-08 05:15:00
1:35 AM,73.2,71.8,95,30.14,7.0,Calm,Calm,-,N/A,,Scattered Clouds,0,2013-07-08 05:35:00
1:55 AM,72.7,71.4,96,30.14,7.0,Calm,Calm,-,N/A,,Scattered Clouds,0,2013-07-08 05:55:00
2:15 AM,72.7,71.6,96,30.14,10.0,Calm,Calm,-,N/A,,Scattered Clouds,0,2013-07-08 06:15:00
2:35 AM,72.9,71.6,96,30.15,7.0,Calm,Calm,-,N/A,,Mostly Cloudy,0,2013-07-08 06:35:00
2:55 AM,72.9,71.6,96,30.14,7.0,Calm,Calm,-,N/A,,Mostly Cloudy,0,2013-07-08 06:55:00
3:15 AM,73.4,72.1,96,30.14,10.0,Calm,Calm,-,N/A,,Scattered Clouds,0,2013-07-08 07:15:00
3:35 AM,73.9,72.7,96,30.14,10.0,Calm,Calm,-,N/A,,Scattered Clouds,0,2013-07-08 07:35:00
3:55 AM,74.5,73.0,95,30.14,10.0,Calm,Calm,-,N/A,,Mostly Cloudy,0,2013-07-08 07:55:00
4:15 AM,74.3,72.5,94,30.14,10.0,Calm,Calm,-,N/A,,Overcast,0,2013-07-08 08:15:00
4:35 AM,73.8,72.1,95,30.14,10.0,Calm,Calm,-,N/A,,Scattered Clouds,0,2013-07-08 08:35:00
4:55 AM,73.4,71.8,95,30.14,7.0,Calm,Calm,-,N/A,,Scattered Clouds,0,2013-07-08 08:55:00
5:15 AM,72.9,71.6,96,30.14,7.0,Calm,Calm,-,N/A,,Scattered Clouds,0,2013-07-08 09:15:00
5:35 AM,72.7,71.4,96,30.15,7.0,Calm,Calm,-,N/A,,Mostly Cloudy,0,2013-07-08 09:35:00
5:55 AM,72.1,71.1,96,30.15,5.0,Calm,Calm,-,N/A,,Mostly Cloudy,0,2013-07-08 09:55:00
6:15 AM,72.0,70.9,96,30.15,5.0,Calm,Calm,-,N/A,,Overcast,0,2013-07-08 10:15:00
6:35 AM,72.5,71.6,97,30.15,5.0,Calm,Calm,-,N/A,,Mostly Cloudy,0,2013-07-08 10:35:00
6:55 AM,72.7,71.8,97,30.16,5.0,Calm,Calm,-,N/A,,Mostly Cloudy,0,2013-07-08 10:55:00
7:15 AM,73.4,72.5,97,30.17,7.0,Calm,Calm,-,N/A,,Overcast,0,2013-07-08 11:15:00
7:35 AM,74.5,73.4,96,30.17,10.0,Calm,Calm,-,N/A,,Overcast,0,2013-07-08 11:35:00
7:55 AM,75.9,73.6,92,30.17,10.0,Calm,Calm,-,N/A,,Mostly Cloudy,0,2013-07-08 11:55:00
8:15 AM,76.3,72.7,89,30.17,10.0,SSW,4.6,-,N/A,,Overcast,200,2013-07-08 12:15:00
8:35 AM,76.8,72.7,87,30.18,10.0,Calm,Calm,-,N/A,,Overcast,0,2013-07-08 12:35:00
8:55 AM,77.0,72.9,87,30.18,10.0,SSW,4.6,-,N/A,,Overcast,200,2013-07-08 12:55:00
9:15 AM,77.9,72.9,84,30.18,10.0,SSW,3.5,-,N/A,,Overcast,200,2013-07-08 13:15:00
9:35 AM,78.3,72.5,82,30.18,10.0,WSW,4.6,-,N/A,,Overcast,240,2013-07-08 13:35:00
9:55 AM,78.8,72.5,81,30.18,10.0,WSW,3.5,-,N/A,,Overcast,250,2013-07-08 13:55:00
10:15 AM,79.0,72.7,81,30.18,10.0,WSW,3.5,-,N/A,,Overcast,240,2013-07-08 14:15:00
10:35 AM,80.4,72.9,78,30.18,10.0,SW,9.2,-,N/A,,Overcast,230,2013-07-08 14:35:00
10:55 AM,80.4,72.3,76,30.19,10.0,SW,8.1,-,N/A,,Mostly Cloudy,230,2013-07-08 14:55:00
11:15 AM,81.9,72.9,74,30.19,10.0,WSW,8.1,-,N/A,,Scattered Clouds,240,2013-07-08 15:15:00
11:35 AM,82.2,72.9,73,30.18,10.0,WSW,3.5,-,N/A,,Scattered Clouds,250,2013-07-08 15:35:00
11:55 AM,82.4,71.2,69,30.18,10.0,West,6.9,-,N/A,,Mostly Cloudy,280,2013-07-08 15:55:00
12:15 PM,82.8,71.8,69,30.18,10.0,West,5.8,-,N/A,,Scattered Clouds,260,2013-07-08 16:15:00
12:35 PM,83.3,71.4,67,30.17,10.0,WNW,4.6,-,N/A,,Scattered Clouds,290,2013-07-08 16:35:00
12:55 PM,83.3,71.6,68,30.17,10.0,West,3.5,-,N/A,,Scattered Clouds,260,2013-07-08 16:55:00
1:15 PM,83.3,71.2,67,30.17,10.0,WSW,5.8,-,N/A,,Scattered Clouds,250,2013-07-08 17:15:00
1:35 PM,83.5,71.6,67,30.17,10.0,WNW,5.8,-,N/A,,Clear,290,2013-07-08 17:35:00
1:55 PM,85.1,72.5,66,30.16,10.0,WSW,4.6,-,N/A,,Scattered Clouds,240,2013-07-08 17:55:00
2:15 PM,85.3,72.0,64,30.16,10.0,WSW,5.8,-,N/A,,Scattered Clouds,240,2013-07-08 18:15:00
2:35 PM,85.3,72.3,65,30.15,10.0,SW,4.6,-,N/A,,Scattered Clouds,230,2013-07-08 18:35:00
2:55 PM,86.2,72.0,62,30.14,10.0,West,3.5,-,N/A,,Scattered Clouds,270,2013-07-08 18:55:00
3:15 PM,86.5,72.0,62,30.14,10.0,SW,4.6,-,N/A,,Clear,220,2013-07-08 19:15:00
3:35 PM,86.9,70.9,59,30.13,10.0,West,4.6,-,N/A,,Clear,280,2013-07-08 19:35:00
3:55 PM,86.9,71.1,59,30.12,10.0,WSW,5.8,-,N/A,,Clear,250,2013-07-08 19:55:00
4:15 PM,87.1,71.2,59,30.12,10.0,West,6.9,-,N/A,,Scattered Clouds,280,2013-07-08 20:15:00
4:35 PM,86.2,70.3,59,30.11,10.0,Calm,Calm,-,N/A,,Scattered Clouds,0,2013-07-08 20:35:00
4:55 PM,87.8,69.6,55,30.11,10.0,WNW,4.6,-,N/A,,Scattered Clouds,290,2013-07-08 20:55:00
5:15 PM,88.3,70.9,56,30.11,10.0,West,8.1,-,N/A,,Scattered Clouds,270,2013-07-08 21:15:00
5:35 PM,87.3,71.2,59,30.11,10.0,SSW,5.8,-,N/A,,Scattered Clouds,200,2013-07-08 21:35:00
5:55 PM,85.3,73.8,68,30.11,10.0,SW,4.6,-,N/A,,Mostly Cloudy,230,2013-07-08 21:55:00
6:15 PM,84.9,73.8,69,30.11,10.0,SE,6.9,-,N/A,,Scattered Clouds,140,2013-07-08 22:15:00
6:35 PM,80.2,72.5,77,30.11,10.0,SSE,4.6,-,N/A,,Clear,150,2013-07-08 22:35:00
6:55 PM,80.1,72.3,77,30.12,10.0,SE,4.6,-,N/A,,Clear,130,2013-07-08 22:55:00
7:15 PM,80.2,73.0,79,30.12,10.0,Calm,Calm,-,N/A,,Scattered Clouds,0,2013-07-08 23:15:00
7:35 PM,79.9,73.8,81,30.14,10.0,SSE,8.1,-,N/A,,Overcast,150,2013-07-08 23:35:00
7:55 PM,77.9,70.3,77,30.14,10.0,SSE,9.2,-,N/A,,Mostly Cloudy,160,2013-07-08 23:55:00
8:15 PM,76.5,70.3,81,30.15,10.0,SSE,3.5,-,N/A,,Scattered Clouds,160,2013-07-09 00:15:00
8:35 PM,75.7,70.7,84,30.16,10.0,South,3.5,-,N/A,,Mostly Cloudy,170,2013-07-09 00:35:00
8:55 PM,74.8,70.9,87,30.16,10.0,SSE,3.5,-,N/A,,Mostly Cloudy,160,2013-07-09 00:55:00
9:15 PM,74.3,70.9,89,30.16,10.0,Calm,Calm,-,N/A,,Scattered Clouds,0,2013-07-09 01:15:00
9:35 PM,73.9,71.1,91,30.15,10.0,Calm,Calm,-,N/A,,Scattered Clouds,0,2013-07-09 01:35:00
9:55 PM,74.5,70.7,88,30.15,10.0,Calm,Calm,-,N/A,,Clear,0,2013-07-09 01:55:00
10:15 PM,72.5,70.3,93,30.15,10.0,Calm,Calm,-,N/A,,Clear,0,2013-07-09 02:15:00
10:35 PM,71.8,69.8,93,30.16,10.0,Calm,Calm,-,N/A,,Clear,0,2013-07-09 02:35:00
10:55 PM,71.8,70.2,95,30.16,10.0,SSW,4.6,-,N/A,,Clear,200,2013-07-09 02:55:00
11:15 PM,72.3,70.9,95,30.16,10.0,Calm,Calm,-,N/A,,Clear,0,2013-07-09 03:15:00
11:35 PM,71.6,70.0,95,30.16,10.0,Calm,Calm,-,N/A,,Clear,0,2013-07-09 03:35:00
11:55 PM,71.6,70.2,95,30.16,10.0,Calm,Calm,-,N/A,,Clear,0,2013-07-09 03:55:00